{"data":{"norad_id":52379,"epoch":"2026-09-19T23:52:25.978368Z","epoch_age_seconds":103312,"freshness":"FRESH","line1":"1 52379U 22045BA  26262.99474512  .00035249  00000+0  10684-2 0  9991","line2":"2 52379  53.1603  25.3854 0002950 337.7197  22.3677 15.33832326245415","mean_motion":15.33832326,"eccentricity":0.000295,"inclination_deg":53.1603,"raan_deg":25.3854,"arg_perigee_deg":337.7197,"mean_anomaly_deg":22.3677,"bstar":0.0010684,"rev_number":24541,"period_min":93.882491299117,"perigee_km":462.37246156088,"apogee_km":466.4095530852,"semimajor_km":6842.528007323,"source":"CELESTRAK","updated_at":"2026-09-20T09:00:40.030539Z"}}